Location: Evergreen Manor
(41.4083°N, 81.4939°W)
Time: 23:10:41
(UTC+00:00)

STARLINK 1011 - Pass Details

Date: 11 December 2019
Orbit: 450 x 451 km, 53.0° (Epoch: 20 January)

Event Time Altitude Azimuth Distance (km) Brightness Sun altitude
Exits shadow 09:58:33 15° 108° (ESE) 1,214 6.1 -29.7°
Drops below altitude 10° 09:59:14 10° 111° (ESE) 1,484 6.7 -29.6°
Enters shadow 10:56:59 -66° 317° (NW) 12,133 10.4 -19.0°
